Simultaneous Nadir Overpasses (SNOs) Predictions

Prediction of SNOs between GOES-14 and NOAA-20 Satellite Orbit:

Table of predicted SNOs for the next 14.0 days since TLE Epoch: 6/15/2022
Index Date Time (GOES-14) GOES-14 Lat,Lon NOAA-20 Lat,Lon Distance(km) Time Diff (sec)
1 06/16/2022 08:14:34 -0.07,-104.49 -0.62,-102.08 275.58 80
2 06/17/2022 20:33:51 0.10,-104.76 -0.48,-107.40 300.07 80
3 06/18/2022 20:17:46 0.09,-104.77 0.51,-102.86 217.25 80
4 06/20/2022 08:36:52 -0.12,-104.51 0.69,-108.12 412.15 80
5 06/21/2022 08:20:46 -0.10,-104.52 -0.30,-103.59 105.76 80
6 06/22/2022 20:40:04 0.14,-104.80 -0.79,-108.91 468.41 80
7 06/23/2022 20:23:58 0.12,-104.81 0.21,-104.38 49.36 80
8 06/26/2022 08:24:19 -0.14,-104.56 -0.00,-105.10 62.47 80
9 06/27/2022 08:08:14 -0.13,-104.57 -1.00,-100.57 455.36 80
10 06/28/2022 20:27:31 0.17,-104.85 -0.07,-105.89 118.90 80
11 06/29/2022 20:11:25 0.15,-104.86 0.93,-101.36 398.76 80
